GEFSCGP_500_meanwind_144.txt.gz
Wind_Speed
17 17 15 14 13 13 12 12 12 13 11 9 8 8 8 8 8 9 9 9 10 11 10 10 11 11 12 12 12 11 10 10 11 12 12 13 15 14 15 16 16 15 16 15
19 18 17 16 15 14 13 13 13 13 11 9 8 8 8 8 9 9 10 10 10 10 11 13 12 12 12 12 13 13 11 11 12 12 12 12 15 15 15 17 16 16 16 16
21 20 19 17 16 15 15 14 14 13 11 10 8 9 10 10 11 11 11 11 11 12 12 13 13 12 12 13 13 13 12 10 9 10 11 12 14 15 15 15 16 17 17 17
24 22 20 19 17 16 16 15 15 13 11 11 9 8 12 11 11 11 11 12 13 12 13 13 12 12 11 12 13 12 10 10 10 10 11 12 14 15 16 16 17 17 17 17
24 23 21 20 18 18 17 16 15 13 12 11 11 9 11 12 12 13 13 13 13 12 12 11 11 11 11 12 12 11 11 10 9 9 10 12 14 15 17 18 17 16 17 18
26 24 22 21 20 19 18 16 15 13 13 13 12 10 11 12 13 13 13 13 12 11 10 10 10 10 10 11 11 11 11 10 9 9 10 12 13 15 16 17 17 17 17 17
26 24 23 22 21 20 19 16 15 14 14 13 14 11 12 13 12 12 12 11 10 10 10 9 9 9 10 11 11 11 11 10 10 10 11 12 13 15 16 17 18 18 18 18
26 25 24 23 22 21 19 18 16 14 13 13 15 12 13 12 11 11 11 10 9 9 8 8 8 8 9 10 11 11 11 10 10 11 12 13 13 14 15 16 17 19 19 19
26 26 25 23 23 22 20 18 17 16 15 13 14 13 12 12 11 10 9 9 8 8 8 8 9 9 10 11 12 11 11 10 10 11 11 12 13 13 15 16 17 18 18 19
27 26 25 24 23 22 21 19 19 17 15 14 13 12 12 12 11 10 9 9 8 8 9 9 9 10 11 12 12 11 12 11 11 11 12 12 13 14 15 17 17 18 19 19
26 25 25 24 23 22 21 20 19 17 16 14 12 13 14 13 12 11 10 10 10 10 11 11 11 12 12 13 12 11 12 12 11 10 11 12 13 14 15 16 18 19 20 20
26 25 24 24 23 22 21 20 19 18 17 15 13 15 15 13 12 12 11 11 11 11 11 11 12 13 13 12 12 12 11 11 11 10 11 12 12 13 15 15 16 18 19 20
26 26 25 24 24 23 22 21 20 18 16 15 13 15 16 14 14 13 12 12 12 12 11 11 12 13 12 12 12 12 11 11 11 11 12 13 13 13 14 15 16 16 17 19
26 25 23 21 20 21 21 21 21 19 17 16 14 16 16 14 14 14 14 14 13 14 14 14 14 14 14 13 12 12 12 11 11 12 12 12 12 13 14 15 15 16 17 18
27 25 24 23 22 21 20 20 21 20 18 17 17 17 16 15 15 16 16 16 16 16 16 16 15 15 14 14 13 13 12 12 11 11 11 12 12 12 12 13 14 16 17 19
28 26 25 24 23 22 22 22 22 20 19 19 18 19 18 16 16 16 16 16 16 16 17 17 17 16 15 15 15 14 14 13 12 12 12 12 12 12 13 13 14 15 17 18
29 27 26 24 24 23 24 24 23 22 21 20 19 20 19 19 18 18 18 17 17 17 17 18 17 17 17 16 16 16 16 15 14 13 13 13 13 13 13 14 15 16 17 17
30 28 26 24 25 25 26 25 23 22 22 21 21 20 20 20 20 20 20 19 19 19 19 20 19 18 18 18 18 18 17 16 15 14 14 14 14 14 15 15 15 16 17 18
32 30 27 25 25 26 27 24 24 23 22 22 22 21 21 21 21 22 21 21 21 21 21 21 21 20 20 19 19 19 19 18 17 16 16 16 16 16 16 16 16 16 17 18
34 32 30 28 25 26 27 24 24 24 24 22 22 22 22 22 23 22 22 22 23 23 23 22 22 22 22 21 20 20 20 19 18 18 18 17 16 16 16 17 17 18 18 19
34 32 31 29 27 28 28 25 25 26 26 23 23 23 23 23 23 23 23 24 24 24 24 23 23 23 22 22 22 21 21 20 20 19 19 19 19 18 18 18 18 19 20 20
33 32 32 30 28 30 28 27 28 27 25 25 24 24 24 24 24 24 23 24 24 24 24 24 23 23 22 22 22 22 22 21 21 20 19 19 19 20 19 19 19 19 19 20
33 34 33 32 31 30 28 27 27 27 27 26 25 25 25 25 25 25 24 24 24 24 24 24 24 24 23 23 23 22 22 21 21 21 20 20 20 20 20 20 21 21 21 22
33 32 31 30 30 29 28 28 28 27 27 27 26 26 26 26 26 26 25 24 24 24 24 24 23 23 23 22 22 22 22 21 21 21 21 21 21 21 21 22 23 23 23 24
32 32 31 31 30 29 29 28 28 27 27 26 26 26 26 26 25 24 24 24 25 25 24 23 22 22 22 22 21 21 22 22 22 22 22 22 22 22 22 23 24 25 24 24
32 31 31 30 29 29 28 28 27 27 26 25 25 25 25 24 23 23 23 23 23 23 23 23 22 22 22 22 22 21 21 21 21 22 23 23 22 22 22 23 24 24 24 24

GEFSCGP_500_meanwind_150.txt.gz
Wind_Speed
16 15 13 12 11 10 9 9 11 11 13 13 11 10 12 11 13 14 14 14 13 13 12 12 13 13 13 13 13 13 13 12 12 11 10 10 10 11 10 11 11 11 11 11
18 16 14 14 13 13 12 11 10 12 14 14 12 12 13 14 14 14 15 14 13 14 14 14 14 14 14 14 14 14 13 12 11 10 10 9 9 10 10 10 11 11 11 12
19 16 17 16 15 14 13 12 11 12 14 14 11 11 12 15 15 15 15 14 14 14 14 13 14 14 14 13 13 13 13 12 11 10 10 9 9 9 9 10 12 12 12 12
21 20 19 18 16 15 15 14 14 14 14 13 11 12 14 14 14 15 15 15 14 14 15 13 13 14 13 12 12 12 13 12 12 11 10 9 9 10 10 11 13 13 13 13
23 22 21 19 17 17 16 15 15 15 14 13 12 12 15 16 16 14 14 15 15 15 15 14 13 12 12 12 12 12 12 12 11 11 10 9 9 9 10 11 13 14 14 14
24 24 23 21 19 19 17 16 15 14 13 15 13 13 16 18 18 16 16 16 16 15 16 15 12 12 12 12 12 12 12 12 11 11 11 10 10 10 11 12 13 14 14 15
25 25 24 22 20 19 18 16 13 12 12 12 12 13 17 19 18 17 17 16 15 15 15 14 13 12 12 12 12 12 11 11 11 11 10 9 10 10 11 12 13 14 15 15
24 24 23 22 20 19 18 16 15 11 11 12 13 15 17 20 18 17 17 17 16 15 14 14 13 13 12 12 12 12 12 11 11 11 11 10 10 10 10 11 12 13 15 16
20 20 21 22 21 20 19 18 15 15 13 13 14 13 18 20 19 18 19 18 16 16 15 15 14 13 13 13 12 12 12 12 12 12 11 10 10 10 10 11 11 13 15 16
21 17 18 21 23 22 21 19 18 19 18 16 15 17 19 18 18 18 17 17 17 16 15 15 15 14 14 13 13 13 13 13 13 12 11 11 10 10 11 12 13 14 16 17
26 22 18 22 24 21 22 22 21 20 19 17 17 19 20 20 19 17 18 17 16 17 15 15 14 14 14 14 15 14 13 13 13 12 12 13 12 11 11 12 14 15 16 18
28 26 22 21 21 20 21 22 22 23 22 20 19 22 22 19 17 18 18 17 17 16 15 15 13 14 15 15 15 15 14 14 14 13 13 13 13 12 12 13 14 15 16 18
29 30 28 23 22 22 22 23 23 22 21 21 19 24 25 23 17 18 18 17 17 17 15 14 15 16 16 16 15 15 15 15 15 14 13 13 13 14 13 13 14 14 15 17
31 32 30 25 21 20 20 21 23 23 22 21 21 25 25 23 19 19 18 18 19 17 17 17 17 17 17 17 16 16 16 16 15 14 15 14 14 13 13 13 14 14 15 16
33 32 31 29 23 20 21 20 22 24 24 23 24 27 27 23 21 20 20 19 19 17 18 18 18 18 18 18 17 18 18 17 16 15 15 15 15 14 14 14 14 15 15 16
33 32 31 31 27 22 21 21 21 23 25 24 26 25 23 22 22 20 20 20 19 19 19 19 19 19 19 19 19 19 19 19 18 17 17 16 16 16 16 15 15 15 15 15
33 32 32 30 28 24 24 21 21 22 23 26 28 29 26 22 21 20 20 21 21 19 20 20 19 19 20 20 20 20 20 19 18 18 18 17 17 16 16 15 15 15 15 15
33 32 32 30 27 28 24 22 22 23 26 29 31 31 28 26 23 22 22 23 23 22 22 21 21 21 21 21 21 20 20 20 19 19 18 18 17 17 16 16 15 15 15 15
35 34 33 30 27 26 26 26 25 26 27 29 31 31 29 28 25 24 25 25 24 24 23 23 23 22 22 22 22 21 21 21 20 20 19 18 17 17 17 17 17 17 17 17
36 35 34 33 31 29 30 29 27 28 31 32 32 30 29 30 29 27 25 24 24 24 25 24 24 23 23 23 23 23 23 22 22 21 20 20 19 19 19 18 18 18 18 18
36 36 36 35 32 31 31 30 30 31 32 32 31 30 30 29 29 27 25 25 24 25 25 25 25 25 24 24 23 23 23 23 22 22 21 20 19 19 19 19 19 20 20 20
35 36 36 36 33 33 33 30 31 32 30 30 29 29 30 29 28 27 26 25 25 25 25 25 25 25 25 25 24 24 24 23 23 22 21 21 21 21 20 20 19 20 21 21
35 36 37 37 38 38 33 30 30 29 29 28 29 29 28 28 27 27 26 26 25 25 26 26 26 25 25 24 24 23 24 24 23 23 23 22 22 22 22 21 21 21 21 21
36 38 38 39 41 40 36 33 32 30 28 29 29 28 27 28 28 27 27 27 26 26 27 26 26 25 24 24 23 23 23 23 23 23 23 23 23 23 22 22 22 23 23 23
35 38 40 40 40 39 39 37 33 32 31 30 31 31 30 29 29 28 28 27 27 27 27 27 26 25 25 24 23 23 23 23 23 23 23 23 22 22 22 22 22 23 23 23
34 38 40 41 40 39 38 36 34 33 32 31 30 30 30 29 28 28 28 28 28 28 28 27 26 25 24 23 23 23 23 23 23 23 23 22 22 22 22 22 22 23 24 24

GEFSCGP_500_meanwind_156.txt.gz
Wind_Speed
16 14 13 13 13 13 12 11 7 5 7 8 9 11 12 14 12 11 11 12 12 11 10 9 9 10 9 8 8 7 8 7 7 6 6 6 5 5 5 7 8 9 10 10
17 15 15 16 15 14 14 12 8 7 8 9 10 11 12 13 13 12 12 13 14 12 11 9 9 9 10 8 7 8 8 7 7 7 7 6 5 5 6 6 8 9 10 10
18 18 18 17 16 16 14 12 11 11 11 11 11 11 12 12 14 13 13 13 14 15 13 9 9 10 10 10 9 9 8 7 8 7 7 7 6 6 6 7 8 10 10 11
20 20 19 18 17 16 15 14 13 14 14 13 13 13 11 12 13 13 13 14 15 15 13 11 10 10 9 10 9 9 8 8 7 7 7 6 6 6 7 8 9 11 11 12
21 21 21 19 17 17 16 16 16 16 16 15 15 16 14 14 13 13 13 14 15 15 14 12 11 10 10 10 9 8 8 8 7 7 7 7 7 7 8 8 9 10 12 13
23 24 23 20 19 18 17 18 18 18 17 16 15 16 14 14 14 13 13 13 14 15 14 12 10 11 10 8 7 8 8 7 7 7 7 7 7 8 8 9 9 11 13 14
25 25 23 22 21 20 20 19 19 18 17 15 15 16 14 15 15 14 14 14 14 15 14 12 11 11 10 8 8 8 8 7 7 8 8 8 8 8 9 9 10 11 13 15
26 25 23 22 21 21 20 20 19 18 16 15 15 13 12 13 14 14 14 14 13 15 14 11 11 11 10 9 8 8 9 8 8 9 9 9 8 8 9 10 10 10 12 14
26 24 23 22 21 21 21 20 19 20 19 18 16 14 14 13 14 14 15 15 14 13 12 12 11 10 9 9 9 9 9 9 9 9 8 8 9 9 8 9 10 11 12 14
26 26 24 23 23 22 21 20 21 22 21 20 18 17 15 15 15 15 16 15 13 12 12 12 11 10 9 9 10 10 11 10 10 9 9 8 9 8 8 9 10 10 12 13
27 27 26 26 24 21 21 21 22 23 23 22 20 17 16 14 15 17 17 15 14 13 12 11 11 10 9 10 10 11 11 10 10 10 10 9 8 8 9 9 10 11 12 13
27 28 28 27 24 21 21 21 22 24 24 24 24 21 19 18 18 18 17 15 13 12 10 10 11 11 10 10 11 11 10 10 10 10 10 10 10 10 10 10 10 11 12 13
27 30 29 28 27 24 22 21 22 23 24 25 25 24 22 21 20 19 18 16 14 11 10 10 12 12 11 11 11 11 10 12 12 12 11 11 11 11 12 11 12 12 13 14
28 30 30 28 26 25 23 21 21 24 26 26 26 25 24 22 21 20 20 19 15 13 12 11 12 12 11 11 11 11 12 13 13 13 13 13 13 13 13 13 13 13 14 14
30 31 31 29 28 28 27 24 22 24 25 26 25 26 24 23 23 22 22 18 14 14 13 13 13 13 12 11 11 12 13 14 14 14 14 14 14 14 14 14 15 15 15 15
33 33 33 32 31 31 30 29 26 25 25 26 25 25 24 23 22 22 20 18 15 15 15 14 14 13 12 11 12 13 14 15 15 15 15 15 14 14 14 14 15 15 16 16
36 35 35 34 33 34 35 32 30 28 27 26 26 24 25 25 24 23 22 18 16 15 16 16 16 14 14 14 13 14 15 16 16 16 15 14 14 15 15 15 15 15 15 15
39 37 36 36 36 38 35 33 32 30 29 28 27 26 25 25 25 25 22 21 18 17 16 16 17 16 17 16 15 16 16 17 16 16 15 15 15 15 15 15 15 15 15 15
40 39 37 37 38 38 37 35 34 32 32 31 30 28 26 26 25 25 24 22 20 19 18 17 18 18 18 18 17 17 17 17 17 17 16 16 15 16 15 15 15 15 15 15
42 40 40 38 38 39 36 35 35 35 34 32 31 29 28 27 26 24 23 22 21 20 19 19 19 20 20 19 19 18 18 18 18 18 17 17 16 16 15 15 14 15 15 15
44 43 41 39 39 39 36 35 36 36 35 33 33 30 30 27 25 24 24 23 21 20 19 19 20 20 20 20 20 20 20 20 19 19 19 18 18 17 16 15 15 15 16 16
45 44 42 40 39 39 35 35 36 36 35 33 31 29 28 25 25 24 22 22 21 20 19 20 20 19 20 20 20 20 20 21 20 20 19 19 18 17 16 16 16 16 16 16
45 44 43 41 39 36 36 35 35 36 35 33 31 30 28 26 26 23 22 22 23 21 20 20 20 20 20 20 20 21 21 21 20 20 19 19 18 18 18 18 18 18 18 18
43 43 42 40 39 37 36 35 33 33 34 33 31 29 28 27 26 24 23 23 23 21 20 20 21 21 21 21 21 21 21 21 21 20 20 20 19 19 19 19 18 18 18 18
40 40 40 38 37 36 35 34 32 31 31 32 31 29 29 28 26 25 22 22 21 21 21 21 21 22 22 22 22 22 22 21 21 21 20 20 19 19 19 19 19 19 19 20
38 39 38 38 37 35 34 34 32 31 32 33 33 31 29 28 26 24 23 21 21 22 22 22 22 23 23 23 23 22 21 21 21 21 20 20 20 20 19 19 19 19 19 20

GEFSCGP_500_meanwind_162.txt.gz
Wind_Speed
16 15 15 16 16 15 14 12 12 11 10 8 6 5 5 6 5 6 5 6 9 10 9 10 11 11 10 8 8 6 4 3 4 5 5 6 5 5 4 5 6 7 8 8
18 17 18 18 17 17 15 14 13 13 12 10 8 6 6 6 6 6 6 7 8 10 11 10 11 11 10 8 7 7 6 5 4 5 5 5 5 5 5 5 6 7 8 9
20 20 19 18 17 17 16 16 15 14 14 12 10 8 7 7 7 7 7 7 8 9 10 11 11 10 9 7 7 7 7 7 6 5 6 6 6 6 6 7 8 8 9 10
23 22 21 19 18 18 17 17 17 16 15 14 12 10 8 8 7 7 7 7 7 9 9 10 10 9 9 8 9 9 8 8 6 6 5 6 6 7 8 8 8 9 10 12
24 24 22 20 20 19 19 19 18 17 17 16 14 12 10 9 8 7 7 8 7 9 9 10 11 10 10 10 10 11 10 7 7 7 6 6 6 7 8 7 8 10 11 12
27 26 23 22 22 21 21 21 19 18 18 18 16 14 11 9 8 8 8 8 8 8 10 11 12 10 10 10 10 10 9 7 7 6 6 6 7 8 8 8 9 10 11 12
28 26 25 24 23 23 22 22 20 19 19 18 17 16 12 11 9 9 9 8 8 9 11 12 12 11 10 10 9 9 8 8 7 7 6 6 8 8 8 9 10 11 12 13
29 27 26 25 24 24 24 23 22 21 20 18 18 16 13 12 10 10 10 9 10 11 12 12 12 11 11 11 9 9 8 8 7 7 7 8 9 9 9 10 11 12 13 14
29 28 27 25 25 26 25 24 23 23 22 21 20 17 14 12 11 11 11 11 11 12 13 13 13 12 12 11 10 9 8 8 7 7 8 9 9 9 10 11 12 13 13 14
30 30 29 27 27 27 26 25 25 24 23 22 21 18 14 13 12 12 12 13 12 12 13 13 12 12 12 12 10 10 9 9 8 8 9 9 9 9 10 11 12 13 14 14
31 31 31 30 29 28 27 26 26 25 25 23 21 18 15 14 13 12 12 13 13 12 13 13 12 12 12 12 10 10 10 10 9 9 9 10 10 10 10 11 12 12 13 13
32 32 32 32 30 30 29 27 26 26 25 23 22 18 16 15 13 12 13 13 14 14 14 13 13 13 12 12 10 11 11 11 11 10 10 10 11 12 12 12 12 12 12 13
32 33 32 32 32 31 29 27 26 25 25 24 22 19 16 15 15 14 14 14 14 14 13 14 14 13 12 10 9 10 11 12 12 11 10 11 12 12 13 13 13 13 13 13
31 31 31 30 29 29 28 27 26 25 25 24 22 19 17 16 15 14 14 14 13 13 12 13 12 11 10 8 8 9 10 10 11 11 10 12 13 13 13 13 13 14 14 15
31 30 29 28 29 29 29 28 27 25 24 23 21 20 18 17 16 15 15 14 14 13 12 12 13 11 9 8 8 9 10 10 11 11 11 12 13 13 13 14 15 15 16 16
30 30 29 28 29 30 30 29 28 26 25 23 22 20 18 18 17 16 16 16 14 14 14 14 13 11 9 9 10 10 11 11 11 12 12 13 13 13 14 14 15 16 17 17
30 29 29 28 29 30 30 29 28 27 25 23 22 20 18 18 17 16 16 15 15 15 15 14 12 12 11 11 11 12 12 13 13 13 14 14 14 14 15 15 15 16 17 18
32 31 30 28 29 31 28 28 29 28 26 24 23 21 20 18 18 17 17 16 16 15 16 14 13 12 12 13 14 14 14 15 15 15 16 16 16 16 16 16 16 17 18 18
34 33 32 30 30 30 29 28 28 28 28 27 25 23 21 20 19 19 18 18 18 17 17 16 15 15 15 15 15 15 15 16 16 16 16 17 18 18 17 17 17 17 17 17
37 36 35 34 33 33 29 28 28 27 28 27 26 25 24 22 22 20 19 19 19 19 18 18 17 16 16 16 16 16 16 16 17 17 17 18 18 18 18 18 18 19 19 18
39 39 38 37 36 35 32 31 29 29 28 27 26 26 26 25 24 23 22 21 20 20 20 19 17 16 16 16 16 17 17 17 18 18 18 19 19 19 18 18 18 19 19 19
40 40 41 40 39 37 34 32 30 29 28 28 28 27 26 26 25 24 23 22 21 21 21 20 19 18 18 18 18 18 18 18 19 19 19 19 19 19 19 19 19 19 19 19
43 43 43 42 41 38 36 33 32 30 29 28 28 27 26 26 25 25 24 24 23 22 22 22 22 20 19 18 19 18 19 19 20 20 20 20 20 20 20 20 20 20 20 20
44 43 43 43 42 40 38 35 33 31 30 29 28 28 27 26 26 25 25 24 24 23 23 21 20 19 18 19 19 20 20 20 21 21 21 21 21 21 21 20 20 21 21 21
43 43 43 43 42 40 38 36 35 33 30 28 28 29 29 28 27 26 25 25 25 23 23 21 20 19 20 20 20 20 20 21 21 21 21 21 22 21 21 21 21 21 22 22
41 42 42 42 41 40 38 36 35 33 31 29 28 29 28 28 28 27 26 25 24 23 22 21 20 19 20 20 20 21 21 22 22 21 21 21 21 21 20 20 21 21 21 21

GEFSCGP_500_meanwind_168.txt.gz
Wind_Speed
15 14 13 11 11 10 9 7 6 5 3 2 2 3 3 3 2 3 4 5 6 7 8 9 10 10 10 8 8 7 6 4 3 4 5 5 5 5 5 6 6 6 6 6
17 16 15 13 12 11 10 8 8 6 5 4 4 4 4 3 3 3 4 5 6 7 8 9 10 10 9 9 9 8 7 6 5 5 6 7 6 5 5 6 7 7 6 7
20 18 17 15 13 12 11 11 10 8 6 5 5 5 4 4 4 4 5 6 7 8 8 9 10 10 10 9 9 9 8 7 6 6 6 7 7 5 6 6 7 7 8 8
23 20 19 17 15 14 13 13 11 9 7 7 5 5 7 5 5 5 6 7 8 8 9 9 10 11 10 10 10 10 10 9 7 6 6 6 7 7 6 6 7 7 8 9
24 22 20 19 18 16 16 14 12 10 9 8 7 5 7 7 6 6 7 7 7 8 8 9 10 11 11 11 11 11 11 10 9 8 8 8 7 8 8 8 8 8 9 10
26 23 22 21 20 18 17 15 13 12 10 10 10 7 7 8 7 8 8 7 8 8 8 10 11 12 12 12 11 11 12 11 10 9 8 9 9 9 9 9 9 10 10 10
27 25 24 22 21 20 18 16 14 13 12 12 11 9 9 9 8 9 9 9 8 9 9 10 11 13 13 12 11 10 11 10 9 9 8 8 9 9 9 10 10 11 11 12
28 27 26 24 23 21 19 18 16 14 12 13 13 11 10 9 9 9 9 9 10 10 11 11 12 13 13 12 11 10 11 10 9 8 8 8 9 10 10 11 11 12 12 13
29 29 27 26 25 23 22 20 18 16 15 13 14 12 11 10 10 10 10 10 11 11 12 12 13 12 13 12 10 10 10 10 9 9 9 9 9 10 11 12 12 13 13 14
31 30 29 27 27 26 24 22 21 18 16 14 14 12 11 11 11 11 10 11 11 12 12 13 12 12 13 12 10 10 10 10 9 10 10 10 10 11 12 13 14 14 14 14
31 31 30 29 28 26 25 23 21 19 18 15 13 13 13 13 12 11 11 11 12 12 12 13 13 13 12 12 11 10 11 11 10 11 11 11 12 12 13 13 13 14 14 15
30 30 30 29 29 27 26 24 23 21 20 17 15 15 15 14 13 12 12 12 13 12 13 13 13 13 12 12 11 11 11 11 10 11 12 12 13 13 13 13 13 13 14 15
30 30 30 29 29 28 27 26 23 21 20 20 16 16 17 15 14 14 14 13 13 13 13 12 12 12 12 12 11 11 10 10 10 11 12 13 13 13 13 13 13 14 15 15
31 30 28 26 26 27 27 26 24 23 22 21 18 17 17 16 16 15 15 14 14 14 13 13 13 12 12 12 12 11 11 11 11 11 12 13 12 12 12 13 13 14 15 16
30 29 29 29 29 28 27 26 26 25 23 21 19 18 17 17 16 16 15 15 14 14 14 13 13 12 12 12 12 12 11 11 11 12 13 13 13 12 13 13 14 15 16 17
29 28 28 29 29 28 27 28 27 26 24 22 21 19 18 17 16 15 15 15 14 14 14 14 13 13 13 13 12 12 11 12 12 13 14 14 15 15 15 15 16 16 17 17
29 28 28 27 27 28 29 28 26 25 23 22 21 19 18 17 16 16 16 15 15 14 15 15 15 15 14 14 14 14 13 14 14 15 15 15 16 16 16 17 17 18 18 18
29 28 27 27 28 28 27 26 25 24 23 22 21 20 19 18 18 17 17 16 16 16 16 16 16 16 16 16 16 16 16 16 16 16 17 17 16 17 18 18 18 18 18 19
30 29 29 28 27 27 28 26 25 24 23 23 22 21 20 19 19 18 18 17 17 17 17 17 17 17 17 17 16 16 17 17 17 17 17 17 18 18 18 18 18 18 19 19
31 31 30 30 28 26 27 26 25 24 24 23 23 22 21 21 21 20 20 19 19 19 18 18 18 18 17 17 17 17 17 18 18 18 18 19 19 19 19 19 19 20 20 20
33 32 32 30 28 27 28 25 25 26 25 24 23 23 22 22 22 22 22 21 20 20 20 20 19 18 18 18 18 18 19 19 19 20 20 20 20 21 21 21 21 22 22 22
34 33 33 31 29 30 28 26 27 26 26 25 25 24 24 23 23 23 22 22 22 22 21 20 20 20 20 20 20 20 20 21 21 20 21 21 22 22 22 22 22 23 23 23
36 36 35 34 32 31 28 27 27 27 27 26 26 25 25 25 24 24 24 23 23 22 22 21 22 22 22 21 21 21 22 22 22 21 22 22 23 23 23 23 23 23 23 23
37 36 35 34 33 31 29 29 28 28 27 27 27 26 26 26 25 25 24 24 23 23 22 22 22 23 23 23 22 22 23 23 23 22 23 23 23 23 23 24 23 23 22 22
38 36 36 35 34 32 32 31 29 29 29 28 27 27 27 26 26 25 24 24 24 24 24 24 23 23 24 24 23 23 23 23 22 22 23 23 23 24 24 23 23 23 22 22
38 38 37 37 35 34 33 32 31 31 30 29 28 27 26 26 26 25 25 25 25 25 25 25 25 25 24 24 24 23 23 22 22 23 23 23 23 23 24 23 23 22 22 22

GEFSCGP_500_meanwind_174.txt.gz
Wind_Speed
13 12 10 8 8 9 8 7 7 9 7 6 7 8 10 9 9 10 10 9 10 11 11 12 12 13 13 12 12 11 10 10 9 8 7 6 6 6 6 6 6 5 5 5
15 12 11 12 11 12 11 7 7 9 8 7 7 8 9 8 9 11 11 10 10 10 11 12 12 13 14 14 13 12 11 10 10 10 8 7 7 7 6 6 6 7 6 7
16 13 14 13 13 13 11 9 8 9 9 8 6 8 11 11 10 11 11 10 9 10 11 11 12 13 13 13 13 12 12 11 10 10 10 9 9 8 8 8 7 8 8 8
18 16 16 15 14 13 11 10 11 10 9 7 8 12 15 13 9 9 11 11 11 10 11 11 12 13 14 14 14 13 13 12 11 11 11 10 10 9 9 7 7 7 8 8
20 20 19 17 15 15 13 13 12 11 10 9 8 12 15 12 10 8 9 10 11 12 11 12 13 14 14 14 14 13 13 12 12 12 12 10 9 9 8 7 7 7 7 8
22 21 20 18 17 17 15 13 11 9 9 10 9 9 15 13 10 9 10 11 11 12 12 12 13 14 15 15 15 14 14 13 13 12 11 10 9 8 8 8 8 9 9 9
23 22 22 20 19 18 16 13 11 9 9 10 9 10 14 13 13 13 12 12 12 12 12 12 13 14 15 15 15 15 14 13 13 12 11 10 9 9 9 9 9 9 9 10
23 23 22 21 20 19 17 15 12 9 10 11 10 10 14 15 15 14 12 12 13 12 12 12 14 14 15 15 15 15 14 13 13 12 11 10 10 10 9 10 10 10 11 12
19 20 21 21 20 20 18 17 14 13 13 13 13 12 15 15 15 14 12 12 12 13 12 13 14 15 16 16 16 15 15 14 14 13 12 11 10 10 10 10 11 12 12 13
21 19 20 22 22 22 20 17 16 18 16 13 13 13 15 15 14 14 13 13 13 13 12 13 14 15 15 14 16 16 15 14 14 13 11 11 11 11 12 12 12 12 13 13
26 23 20 24 25 22 22 22 20 18 17 13 13 15 14 14 14 15 15 14 15 14 14 13 14 14 15 16 16 16 15 14 14 13 13 12 12 13 13 13 13 13 13 13
30 26 24 24 24 21 22 23 22 22 20 18 15 17 15 13 14 16 16 16 16 14 13 14 15 15 15 16 16 16 15 15 14 14 14 14 14 14 14 14 14 14 14 14
32 31 28 24 24 24 23 23 22 21 19 18 15 17 18 17 16 18 18 18 17 14 15 15 15 15 15 16 16 16 16 15 15 15 15 15 15 14 14 14 14 14 14 15
33 33 31 25 22 21 22 23 23 22 21 20 18 20 21 18 18 20 19 18 17 16 16 15 15 15 15 16 16 16 16 16 15 15 16 16 15 15 15 15 15 15 16 16
32 33 32 29 24 19 20 21 22 24 23 22 19 20 22 21 20 21 20 19 18 17 17 16 15 14 15 16 17 17 17 16 16 16 17 17 16 16 16 16 16 16 16 16
34 34 33 32 29 24 21 21 21 22 24 24 21 20 20 22 22 22 22 21 19 18 17 15 14 15 16 16 17 18 17 17 17 17 18 17 16 16 16 16 17 17 17 17
33 33 33 32 30 28 26 22 21 21 22 23 23 24 23 25 25 25 24 23 20 18 16 16 16 16 17 17 17 17 17 17 17 18 17 17 17 17 17 18 18 18 19 19
32 33 32 31 30 30 27 24 23 23 23 24 25 25 26 28 27 26 25 23 20 19 18 18 18 18 18 18 18 18 17 17 18 18 18 18 19 19 19 19 19 19 19 19
32 32 32 31 29 27 25 25 25 25 26 26 26 27 28 28 26 26 25 23 21 20 20 19 19 19 19 19 19 19 18 18 18 19 19 19 20 20 20 20 20 20 20 20
33 33 33 32 29 25 25 26 26 26 28 28 29 28 28 27 26 25 24 23 22 21 21 21 20 20 20 20 20 20 19 20 20 20 20 21 21 21 21 21 21 21 21 22
34 34 35 33 31 27 25 26 27 28 30 30 29 28 28 28 27 26 24 23 22 22 22 22 22 21 21 21 21 21 21 21 22 21 21 22 22 21 21 22 22 23 22 23
34 34 35 34 32 30 29 27 29 29 29 29 29 29 29 28 27 27 25 24 24 23 23 23 23 23 23 22 22 22 23 22 22 22 22 22 22 22 22 22 23 23 23 23
34 34 33 34 35 35 33 33 33 30 29 29 30 29 29 29 28 27 26 25 25 25 25 25 24 24 24 23 23 23 23 23 23 24 24 23 23 23 23 23 23 24 24 24
34 35 36 36 36 38 37 36 34 32 32 30 30 30 30 29 28 27 26 26 26 25 26 26 25 25 25 25 25 24 24 24 24 25 25 25 24 24 24 23 24 24 24 24
37 38 38 38 38 38 38 37 34 32 32 32 32 31 30 30 29 28 27 27 27 27 27 27 26 26 26 26 26 26 25 25 25 25 26 25 24 24 24 24 24 24 24 25
38 38 39 39 38 38 37 36 35 34 33 33 33 32 32 31 31 29 29 29 28 28 28 28 28 27 27 27 27 27 26 26 27 27 27 26 25 25 24 24 24 24 25 25

GEFSCGP_500_meanwind_180.txt.gz
Wind_Speed
16 15 14 13 12 11 9 6 3 1 5 8 9 9 10 10 11 11 11 9 10 10 9 10 10 10 11 11 10 9 9 8 7 7 6 4 3 3 3 3 4 3 3 3
17 16 15 16 15 14 11 8 5 3 4 6 8 9 10 10 11 11 11 8 9 8 8 9 9 10 11 10 10 10 9 8 7 7 7 5 4 4 4 5 5 4 4 4
18 17 17 17 16 15 13 10 7 6 6 6 8 9 10 9 10 12 10 9 8 8 8 9 9 9 10 11 11 10 9 8 7 7 7 6 5 5 5 5 6 5 5 5
21 20 20 18 18 17 15 12 11 9 8 8 9 10 10 10 11 11 10 10 10 8 9 9 9 10 11 11 11 9 9 9 8 7 8 7 7 6 5 4 5 5 4 4
22 22 21 20 18 17 16 16 14 12 11 9 10 11 10 12 12 10 9 10 10 9 9 9 9 10 11 11 10 10 10 10 9 8 8 8 7 6 5 4 4 4 3 4
23 23 22 20 19 18 17 17 15 13 12 10 11 11 11 11 10 9 8 9 10 10 10 9 9 10 10 10 10 10 10 10 9 9 8 8 8 7 5 5 4 5 4 4
24 23 22 21 20 19 18 17 15 14 12 10 10 10 9 9 9 8 8 9 9 10 10 10 10 10 10 10 10 10 10 10 10 9 9 8 7 7 6 5 5 5 5 5
26 24 22 21 21 19 19 18 16 15 13 10 10 10 10 9 9 8 8 8 9 8 9 10 9 10 10 10 11 11 10 10 10 9 9 8 7 6 6 5 6 6 6 6
26 24 23 23 22 20 19 19 18 17 15 12 11 11 11 10 9 9 8 8 8 7 9 10 10 10 10 10 10 11 11 11 10 9 8 8 7 7 7 6 6 6 7 7
26 25 24 23 23 21 19 19 20 19 17 15 13 12 12 12 11 9 7 7 7 8 9 10 10 10 10 11 11 11 11 10 10 9 9 8 8 8 8 7 8 7 8 8
28 27 25 25 24 21 20 20 21 20 19 17 15 14 13 12 10 9 8 8 7 8 10 11 10 11 10 10 11 11 11 11 11 10 9 9 8 9 8 8 8 8 8 8
28 28 27 27 24 21 20 20 21 21 20 19 18 16 15 13 12 12 12 10 8 8 10 10 10 10 10 10 10 11 11 11 11 10 10 10 9 9 8 8 9 9 9 8
30 30 28 28 26 24 22 21 21 22 23 22 20 17 16 16 14 14 13 11 10 9 10 11 11 11 10 10 10 11 12 11 10 10 11 11 11 10 10 9 10 9 10 10
31 32 30 28 26 25 23 22 22 23 24 24 22 19 18 17 16 17 16 13 13 12 11 13 13 13 12 11 11 11 12 11 10 11 11 12 12 11 11 10 10 10 10 10
33 33 31 29 28 27 25 24 23 23 23 24 23 22 20 19 19 19 18 15 14 13 13 14 14 14 13 12 12 11 12 12 11 11 12 12 12 11 11 11 11 10 11 11
34 35 33 31 31 31 29 27 25 24 23 23 24 23 22 20 20 19 18 15 14 15 15 15 15 15 13 12 12 12 12 12 13 13 12 13 12 12 12 12 12 12 12 12
35 34 34 33 33 33 33 29 27 26 25 24 24 23 23 23 21 20 19 18 18 19 18 17 16 15 13 12 12 12 12 13 13 13 13 13 13 13 13 13 13 13 13 14
34 34 34 34 34 37 33 31 29 27 26 26 25 25 25 25 24 23 21 20 20 20 19 18 17 15 14 13 12 12 12 14 14 14 14 14 14 14 14 14 14 14 14 14
35 35 34 34 35 36 33 32 31 29 28 28 27 25 26 26 25 23 23 22 21 20 20 19 18 17 15 14 13 13 14 15 15 15 16 15 15 15 14 15 15 15 15 15
37 36 36 36 36 37 34 33 32 31 31 30 28 28 27 26 25 24 23 23 22 21 21 20 17 17 16 15 15 15 16 17 17 16 16 16 16 16 16 16 16 16 16 16
38 37 36 36 36 36 34 35 34 34 33 31 30 29 29 28 26 25 24 23 23 23 22 21 20 18 17 17 16 16 17 17 17 17 18 18 17 16 17 17 17 17 18 18
38 37 36 36 36 35 33 34 36 36 34 33 32 31 30 29 28 28 26 25 24 24 22 22 21 20 19 18 18 18 18 19 18 19 19 18 18 18 18 18 18 18 19 19
40 39 37 37 36 34 34 35 35 36 35 34 33 32 31 30 30 28 27 26 25 25 24 23 22 22 21 20 21 20 20 20 20 20 20 20 20 20 20 19 19 19 20 20
41 39 39 39 37 35 35 36 36 36 35 34 33 31 30 30 29 29 28 27 25 24 23 23 23 23 22 22 22 21 21 21 21 21 21 21 21 21 21 21 21 20 20 20
40 39 39 39 38 37 36 35 35 35 33 32 33 32 31 30 29 27 27 27 25 24 24 25 24 24 23 23 23 22 22 21 21 21 22 22 22 22 22 22 21 21 21 22
41 39 39 38 37 37 36 36 37 36 35 34 34 32 30 30 30 29 29 28 27 26 25 24 24 24 24 24 23 23 23 22 22 22 22 22 22 23 23 22 22 22 23 23

GEFSCGP_500_meanwind_186.txt.gz
Wind_Speed
16 15 14 14 12 10 8 7 5 3 1 1 3 5 7 9 9 9 9 10 9 9 10 10 10 10 10 10 9 8 7 6 5 4 4 3 3 3 3 4 4 4 4 4
18 17 17 16 14 12 10 9 8 6 4 3 3 4 5 7 8 9 9 9 9 9 10 10 10 11 10 10 9 8 7 6 5 5 4 4 3 3 3 4 4 4 5 5
20 20 19 18 16 15 13 12 11 8 6 5 4 4 5 6 7 7 8 8 8 8 10 10 11 11 11 10 9 9 8 7 6 5 5 5 4 4 4 4 5 5 6 6
23 22 21 20 19 17 16 14 13 11 9 7 6 5 4 5 6 6 6 7 8 8 10 10 11 11 10 9 9 9 8 8 7 6 6 5 5 5 4 4 4 5 5 4
24 24 23 21 20 19 18 17 15 13 12 10 8 7 5 5 6 5 5 6 8 8 8 9 10 10 10 10 9 8 8 8 8 7 6 6 5 5 5 5 5 4 4 4
26 25 24 22 22 21 20 19 18 16 15 13 11 10 6 6 5 5 5 6 7 8 8 8 9 9 10 11 9 8 8 8 7 7 6 6 6 6 5 6 5 5 5 5
28 26 25 24 24 23 23 21 20 19 17 15 12 11 8 6 5 5 5 6 7 8 8 9 9 10 11 11 10 9 8 8 7 7 7 7 7 6 5 5 6 6 6 6
29 28 27 26 25 24 24 23 22 20 19 17 15 13 10 7 6 6 6 6 7 7 8 9 9 10 11 10 10 9 9 8 8 7 7 8 8 7 7 6 6 7 7 7
30 28 28 27 26 26 25 25 23 22 20 19 17 14 11 9 7 7 7 6 7 8 9 9 9 11 10 10 9 9 9 8 8 8 8 8 8 8 7 8 7 6 7 8
31 29 29 28 28 28 26 25 25 24 22 20 18 15 12 11 9 8 7 7 8 8 9 9 10 10 10 11 10 10 10 9 8 8 8 8 8 8 7 7 7 7 7 8
32 31 29 29 29 28 27 26 25 24 23 21 19 16 13 11 10 8 8 7 7 8 9 9 10 10 10 10 10 10 11 10 9 8 9 8 8 8 8 8 8 8 8 9
32 32 31 30 30 29 28 27 26 24 23 21 20 17 14 12 11 10 9 8 7 9 9 10 11 11 11 11 10 11 11 11 10 9 9 9 9 9 9 8 8 9 9 10
33 33 32 31 31 30 29 28 26 25 24 22 21 18 16 15 13 12 11 10 10 10 9 11 12 12 11 11 11 10 11 11 10 9 9 9 9 9 9 8 8 9 10 11
33 33 32 31 30 29 28 28 27 26 25 23 22 19 18 16 15 14 13 12 11 11 12 12 12 11 11 11 11 10 10 10 10 10 11 11 10 9 9 9 9 10 10 11
34 33 32 31 31 30 29 29 29 27 26 24 21 20 18 17 16 15 14 13 12 13 13 12 13 13 12 12 11 11 10 11 11 11 11 12 11 10 9 9 10 10 11 11
34 34 32 32 31 31 31 30 29 28 26 25 23 21 18 18 17 16 15 14 14 14 14 15 15 14 13 12 12 12 11 11 12 12 12 12 11 11 11 11 11 12 12 12
33 33 33 32 31 31 32 31 30 29 27 26 24 21 20 19 17 17 17 16 16 15 15 16 15 15 14 13 11 11 11 11 12 13 13 13 12 12 12 12 12 13 13 14
34 33 33 33 32 33 31 30 30 30 29 27 25 23 22 20 18 18 18 17 16 15 15 16 14 14 14 14 12 12 12 12 13 14 13 13 13 14 14 13 14 14 14 14
35 34 34 35 34 34 32 31 30 30 30 29 27 25 23 22 21 20 19 18 17 16 16 16 16 16 16 15 14 13 12 13 14 13 14 14 15 15 14 14 15 15 15 15
37 35 35 36 36 36 33 31 31 31 30 28 27 26 25 24 23 21 20 19 18 17 17 18 17 17 16 15 14 15 15 15 15 15 15 16 16 15 15 15 15 15 16 16
37 37 36 36 37 37 34 33 32 32 30 28 27 27 26 25 23 22 21 21 20 19 19 19 18 17 16 16 15 15 15 15 16 17 17 16 16 16 16 16 16 16 17 17
39 38 37 37 38 37 35 33 33 33 30 29 28 28 28 26 25 24 24 23 22 20 20 20 19 18 18 18 18 18 16 17 17 18 18 18 17 17 17 17 17 18 18 18
40 39 38 38 37 36 35 35 34 33 32 30 29 29 28 27 27 26 25 24 23 23 22 21 20 20 20 20 20 19 19 19 19 19 18 18 18 18 18 19 19 19 19 19
42 40 39 39 38 37 36 35 35 34 32 30 30 29 28 28 28 28 27 25 24 24 24 23 22 22 21 22 22 21 21 20 20 19 19 19 19 19 19 20 20 20 20 20
41 41 40 40 38 37 36 35 34 34 33 31 30 30 31 29 28 28 27 26 26 26 25 24 24 24 24 23 24 23 22 21 21 20 20 20 20 20 20 20 21 21 20 21
40 41 41 41 39 38 37 35 35 33 33 32 31 30 30 30 29 29 29 28 26 25 25 25 25 24 24 24 24 24 23 22 22 21 21 21 21 21 21 21 22 21 22 22